N4DCI Weather Reports


time (UTC)temp
F
wind
direction
speed
knots
gust
knots
rain 1hr
in
rain 24hr
in
rain mn
in
humidity
%
barometer
mb
20260509000006 59 80 0.9 3.5 0.00 0.00 0.00 67 1016.4
20260508234506 60 299 0.0 4.3 0.00 0.00 0.00 66 1016.2
20260508233005 60 30 1.7 7.0 0.00 0.00 0.00 66 1016.3
20260508231505 61 355 2.6 6.1 0.00 0.00 0.00 66 1016.3
20260508230004 61 17 2.6 5.2 0.00 0.00 0.00 66 1016.3
20260508224505 61 61 1.7 7.8 0.00 0.00 0.00 64 1016.4
20260508223005 61 31 1.7 7.0 0.00 0.00 0.00 66 1016.5
20260508221500 62 30 2.6 7.8 0.00 0.00 0.00 64 1016.4
20260508220006 62 313 1.7 8.7 0.00 0.00 0.00 63 1016.4
20260508214505 62 50 5.2 9.6 0.00 0.00 0.00 62 1016.4
20260508213005 62 50 3.5 10.4 0.00 0.00 0.00 61 1016.4
20260508211505 63 5 3.5 7.8 0.00 0.00 0.00 61 1016.4
20260508210005 63 43 3.5 7.8 0.00 0.00 0.00 60 1016.2
20260508204505 64 355 0.9 5.2 0.00 0.00 0.00 60 1016.3
20260508201505 66 355 2.6 7.0 0.00 0.00 0.00 56 1016.5
20260508200006 65 42 3.5 7.0 0.00 0.00 0.00 58 1016.6
20260508194505 65 44 4.3 7.8 0.00 0.00 0.00 57 1017.0
20260508193005 64 145 0.9 2.6 0.00 0.00 0.00 59 1017.2
20260508191505 65 32 2.6 10.4 0.00 0.00 0.00 58 1017.5
20260508190006 63 28 3.5 7.8 0.00 0.00 0.00 58 1017.6
20260508184505 63 80 2.6 7.0 0.00 0.00 0.00 58 1018.0
20260508183005 64 52 3.5 8.7 0.00 0.00 0.00 58 1018.0
20260508181505 64 228 1.7 7.0 0.00 0.00 0.00 57 1018.3
20260508180005 63 19 4.3 7.8 0.00 0.00 0.00 60 1018.3
20260508174500 64 50 1.7 9.6 0.00 0.00 0.00 56 1018.5
20260508173005 63 205 2.6 5.2 0.00 0.00 0.00 58 1018.5
20260508171500 63 228 3.5 7.8 0.00 0.00 0.00 58 1018.7
20260508170005 63 76 1.7 5.2 0.00 0.00 0.00 59 1019.0
20260508163004 63 9 0.9 7.0 0.00 0.00 0.00 63 1019.4
20260508161504 61 56 1.7 5.2 0.00 0.00 0.00 63 1019.7
20260508160006 61 225 2.6 4.3 0.00 0.00 0.00 60 1019.8
20260508154504 62 246 0.9 7.8 0.00 0.00 0.00 60 1019.9
20260508153005 62 42 1.7 4.3 0.00 0.00 0.00 58 1020.0
20260508151505 62 211 0.9 3.5 0.00 0.00 0.00 54 1020.1
20260508150005 61 56 2.6 7.0 0.00 0.00 0.00 58 1020.1
20260508143000 59 188 1.7 3.5 0.00 0.00 0.00 60 1020.1
20260508141500 59 85 0.9 2.6 0.00 0.00 0.00 60 1020.2
20260508140006 57 203 0.9 2.6 0.00 0.00 0.00 65 1020.3
20260508133004 54 139 0.9 3.5 0.00 0.02 0.00 72 1020.4
20260508131505 52 108 0.0 3.5 0.00 0.02 0.00 77 1020.3
20260508130006 51 196 0.9 2.6 0.00 0.02 0.00 79 1020.1
20260508124500 50 146 0.9 3.5 0.00 0.06 0.00 82 1020.1
20260508123000 49 90 0.0 3.5 0.00 0.06 0.00 86 1020.0
20260508121504 47 102 0.9 3.5 0.00 0.06 0.00 89 1019.8
20260508120004 46 122 0.9 2.6 0.00 0.13 0.00 92 1019.7
20260508113000 45 98 0.0 1.7 0.00 0.13 0.00 92 1019.3
20260508111504 45 98 0.0 0.0 0.00 0.13 0.00 92 1018.8
20260508110006 44 98 0.0 0.0 0.00 0.13 0.00 92 1018.8
20260508104504 44 97 0.0 0.9 0.00 0.19 0.00 91 1018.6
20260508103005 44 97 0.0 0.0 0.00 0.19 0.00 91 1018.4
20260508101459 45 97 0.0 0.0 0.00 0.19 0.00 91 1018.3
20260508100005 45 97 0.0 0.0 0.00 0.20 0.00 90 1018.0
20260508091504 46 96 0.0 0.9 0.00 0.20 0.00 89 1017.6
20260508084504 48 96 0.9 1.7 0.00 0.20 0.00 88 1017.5
20260508083004 48 123 0.0 2.6 0.00 0.20 0.00 88 1017.5
20260508081505 48 136 0.0 1.7 0.00 0.20 0.00 88 1017.4
20260508080005 48 116 0.9 2.6 0.00 0.20 0.00 88 1017.1
20260508074504 49 46 0.9 2.6 0.00 0.25 0.00 87 1017.2
20260508073005 49 73 2.6 8.7 0.00 0.25 0.00 87 1017.0
20260508071504 49 94 2.6 7.0 0.00 0.25 0.00 87 1016.9
20260508070005 49 126 2.6 5.2 0.00 0.25 0.00 87 1016.8
20260508064505 49 355 0.0 7.0 0.00 0.25 0.00 87 1016.5
20260508061459 49 103 0.9 4.3 0.00 0.25 0.00 88 1016.5
20260508054505 49 78 0.0 0.9 0.00 0.32 0.00 86 1016.9
20260508053005 49 69 0.0 2.6 0.00 0.32 0.00 85 1016.9
20260508051504 50 105 1.7 4.3 0.00 0.32 0.00 84 1016.8
20260508044505 50 36 0.9 5.2 0.00 0.45 0.00 84 1016.7
20260508043005 50 67 0.0 1.7 0.00 0.45 0.00 84 1016.7
20260508041505 50 89 0.9 1.7 0.00 0.45 0.00 83 1016.7
20260508040005 50 47 0.9 4.3 0.00 0.45 0.45 83 1016.6
20260508034505 51 57 1.7 2.6 0.00 0.45 0.45 83 1016.5
20260508033005 51 85 0.9 4.3 0.00 0.45 0.45 83 1016.7
20260508031505 51 43 0.9 3.5 0.00 0.45 0.45 83 1016.7
20260508024505 52 79 0.9 3.5 0.00 0.51 0.45 82 1016.4
20260508023006 52 65 1.7 5.2 0.00 0.51 0.45 82 1016.1
20260508021505 52 74 2.6 5.2 0.00 0.51 0.45 81 1015.9
20260508020005 52 74 0.9 3.5 0.00 0.53 0.45 81 1015.7
20260508014506 52 69 1.7 5.2 0.00 0.53 0.45 80 1015.6
20260508013005 53 71 1.7 4.3 0.00 0.53 0.45 79 1015.4
20260508011506 53 54 1.7 6.1 0.00 0.53 0.45 77 1015.2
20260508010006 53 81 2.6 5.2 0.00 0.53 0.45 76 1015.0
20260508004505 54 74 2.6 8.7 0.00 0.66 0.45 76 1014.8
20260508003006 54 81 2.6 9.6 0.00 0.66 0.45 76 1014.6